GW2381 Weather Reports


Display with metric or nautical units.
time (UTC)temp
F
wind
direction
speed
MPH
gust
MPH
rain 1hr
in
rain 24hr
in
rain mn
in
humidity
%
barometer
mb
20260508225016 77 318 5.0 7.0 0.00 0.00 0.00 19 1011.4
20260508224514 77 280 2.0 2.0 0.00 0.00 0.00 18 1011.6
20260508224011 78 255 5.0 7.0 0.00 0.00 0.00 19 1011.6
20260508223509 78 244 1.0 1.0 0.00 0.00 0.00 21 1011.8
20260508223006 77 204 5.0 6.0 0.00 0.00 0.00 19 1012.0
20260508222503 77 228 2.0 3.0 0.00 0.00 0.00 20 1012.0
20260508222000 77 276 1.0 1.0 0.00 0.00 0.00 20 1012.0
20260508221456 76 242 3.0 3.0 0.00 0.00 0.00 21 1012.2
20260508220952 77 246 4.0 5.0 0.00 0.00 0.00 20 1012.1
20260508220449 76 63 1.0 1.0 0.00 0.00 0.00 21 1012.3
20260508215945 75 151 1.0 1.0 0.00 0.00 0.00 18 1012.2
20260508215443 78 309 9.0 10.0 0.00 0.00 0.00 19 1012.4
20260508214939 76 305 3.0 3.0 0.00 0.00 0.00 21 1012.2
20260508214437 77 278 3.0 3.0 0.00 0.00 0.00 22 1012.4
20260508213932 77 231 4.0 5.0 0.00 0.00 0.00 21 1012.6
20260508213430 76 246 4.0 5.0 0.00 0.00 0.00 21 1012.6
20260508212925 75 251 3.0 5.0 0.00 0.00 0.00 22 1012.6
20260508212422 76 257 3.0 3.0 0.00 0.00 0.00 23 1012.6
20260508211918 76 217 3.0 3.0 0.00 0.00 0.00 21 1012.7
20260508211414 75 293 4.0 5.0 0.00 0.00 0.00 22 1012.7
20260508210911 75 252 1.0 2.0 0.00 0.00 0.00 22 1013.1
20260508210408 75 259 3.0 3.0 0.00 0.00 0.00 22 1013.1
20260508205904 76 297 4.0 5.0 0.00 0.00 0.00 21 1013.0
20260508205401 75 294 4.0 5.0 0.00 0.00 0.00 22 1012.9
20260508204857 74 257 2.0 2.0 0.00 0.00 0.00 24 1013.1
20260508204355 75 327 5.0 7.0 0.00 0.00 0.00 22 1013.3
20260508203850 75 246 5.0 7.0 0.00 0.00 0.00 21 1013.2
20260508203347 75 197 3.0 3.0 0.00 0.00 0.00 22 1013.2
20260508202842 76 237 3.0 5.0 0.00 0.00 0.00 24 1013.2
20260508202340 76 84 1.0 2.0 0.00 0.00 0.00 22 1013.2
20260508201837 75 281 2.0 5.0 0.00 0.00 0.00 24 1013.3
20260508201334 74 240 6.0 9.0 0.00 0.00 0.00 24 1013.3
20260508200830 74 284 3.0 3.0 0.00 0.00 0.00 24 1013.2
20260508200327 74 285 4.0 6.0 0.00 0.00 0.00 24 1013.3
20260508195822 73 279 2.0 2.0 0.00 0.00 0.00 27 1013.2
20260508195319 73 298 2.0 2.0 0.00 0.00 0.00 26 1013.5
20260508194810 74 330 3.0 3.0 0.00 0.00 0.00 23 1013.3
20260508194308 72 299 3.0 5.0 0.00 0.00 0.00 27 1013.4
20260508193804 73 263 1.0 2.0 0.00 0.00 0.00 27 1013.3
20260508193301 73 310 5.0 6.0 0.00 0.00 0.00 25 1013.4
20260508192757 73 302 5.0 7.0 0.00 0.00 0.00 24 1013.4
20260508192254 72 299 7.0 8.0 0.00 0.00 0.00 27 1013.7
20260508191752 71 287 5.0 6.0 0.00 0.00 0.00 29 1013.5
20260508191249 72 290 7.0 9.0 0.00 0.00 0.00 27 1013.5
20260508190746 72 274 4.0 5.0 0.00 0.00 0.00 28 1013.9
20260508190242 73 304 4.0 5.0 0.00 0.00 0.00 27 1013.7
20260508185738 73 281 3.0 3.0 0.00 0.00 0.00 30 1013.7
20260508185236 72 282 3.0 5.0 0.00 0.00 0.00 29 1013.8
20260508184733 72 276 3.0 3.0 0.00 0.00 0.00 31 1013.7
20260508184230 72 276 2.0 3.0 0.00 0.00 0.00 28 1013.8
20260508183727 72 248 3.0 3.0 0.00 0.00 0.00 28 1013.8
20260508183223 72 247 2.0 2.0 0.00 0.00 0.00 28 1014.0
20260508182719 71 228 3.0 3.0 0.00 0.00 0.00 30 1014.1
20260508182216 72 238 7.0 8.0 0.00 0.00 0.00 26 1014.1
20260508181712 71 246 5.0 7.0 0.00 0.00 0.00 25 1014.0
20260508181209 71 255 2.0 2.0 0.00 0.00 0.00 33 1014.0
20260508180706 72 227 3.0 5.0 0.00 0.00 0.00 30 1013.9
20260508180203 72 249 3.0 3.0 0.00 0.00 0.00 30 1014.2
20260508175659 70 333 1.0 1.0 0.00 0.00 0.00 30 1014.1
20260508175156 71 317 3.0 3.0 0.00 0.00 0.00 31 1014.2
20260508174654 71 188 1.0 1.0 0.00 0.00 0.00 33 1014.2
20260508174150 69 217 6.0 7.0 0.00 0.00 0.00 33 1014.2
20260508173647 69 162 3.0 3.0 0.00 0.00 0.00 34 1014.3
20260508173143 70 279 2.0 2.0 0.00 0.00 0.00 33 1014.4
20260508172640 69 287 4.0 5.0 0.00 0.00 0.00 33 1014.4
20260508172137 69 298 1.0 1.0 0.00 0.00 0.00 33 1014.4
20260508171633 68 308 3.0 3.0 0.00 0.00 0.00 33 1014.2
20260508171130 68 292 3.0 3.0 0.00 0.00 0.00 34 1014.4
20260508170627 68 307 4.0 6.0 0.00 0.00 0.00 36 1014.4
20260508170125 69 250 2.0 3.0 0.00 0.00 0.00 37 1014.4
20260508165622 68 221 2.0 3.0 0.00 0.00 0.00 39 1014.3
20260508165119 68 263 3.0 5.0 0.00 0.00 0.00 40 1014.3
20260508164615 69 258 3.0 5.0 0.00 0.00 0.00 43 1014.2
20260508164112 69 250 3.0 3.0 0.00 0.00 0.00 44 1014.2
20260508163609 68 253 2.0 2.0 0.00 0.00 0.00 46 1014.2
20260508163106 68 227 2.0 2.0 0.00 0.00 0.00 43 1014.2
20260508162603 68 274 2.0 2.0 0.00 0.00 0.00 45 1014.0
20260508162100 68 242 2.0 3.0 0.00 0.00 0.00 43 1014.0
20260508161557 67 211 0.0 0.0 0.00 0.00 0.00 44 1014.0
20260508161054 67 226 2.0 2.0 0.00 0.00 0.00 46 1014.0
20260508160553 67 215 1.0 1.0 0.00 0.00 0.00 45 1013.9
20260508160049 67 240 1.0 1.0 0.00 0.00 0.00 48 1013.8
20260508155546 66 286 0.0 1.0 0.00 0.00 0.00 45 1014.1
20260508155043 66 233 1.0 1.0 0.00 0.00 0.00 45 1014.0
20260508154540 67 225 1.0 1.0 0.00 0.00 0.00 46 1014.1
20260508154037 66 273 2.0 2.0 0.00 0.00 0.00 45 1014.0
20260508153534 66 211 0.0 1.0 0.00 0.00 0.00 46 1013.9
20260508153030 67 202 1.0 1.0 0.00 0.00 0.00 45 1013.8
20260508152528 67 188 0.0 0.0 0.00 0.00 0.00 44 1013.9
20260508152023 66 184 0.0 1.0 0.00 0.00 0.00 45 1013.9
20260508151520 65 210 1.0 1.0 0.00 0.00 0.00 47 1013.7
20260508151016 63 210 0.0 1.0 0.00 0.00 0.00 50 1013.9
20260508150514 64 162 1.0 1.0 0.00 0.00 0.00 47 1013.9
20260508150009 64 156 0.0 0.0 0.00 0.00 0.00 47 1013.8
20260508145506 63 157 1.0 2.0 0.00 0.00 0.00 46 1013.9
20260508145002 63 159 1.0 2.0 0.00 0.00 0.00 45 1013.9
20260508144500 62 160 0.0 1.0 0.00 0.00 0.00 47 1013.7
20260508143958 62 162 2.0 2.0 0.00 0.00 0.00 46 1013.4
20260508143455 61 178 1.0 1.0 0.00 0.00 0.00 46 1013.7
20260508142951 61 168 0.0 1.0 0.00 0.00 0.00 46 1013.7
20260508142449 61 159 1.0 1.0 0.00 0.00 0.00 46 1013.5
20260508141944 60 155 1.0 1.0 0.00 0.00 0.00 46 1013.7
20260508141442 60 152 1.0 2.0 0.00 0.00 0.00 46 1013.5
20260508140939 59 164 1.0 1.0 0.00 0.00 0.00 47 1013.4
20260508140436 58 175 0.0 0.0 0.00 0.00 0.00 48 1013.5
20260508135931 59 168 2.0 2.0 0.00 0.00 0.00 46 1013.3
20260508135428 59 142 0.0 0.0 0.00 0.00 0.00 46 1013.4
20260508134925 57 150 0.0 0.0 0.00 0.00 0.00 48 1013.3
20260508134421 57 147 2.0 2.0 0.00 0.00 0.00 45 1013.1
20260508133918 57 162 1.0 1.0 0.00 0.00 0.00 47 1013.1
20260508133416 55 163 0.0 1.0 0.00 0.00 0.00 49 1013.4
20260508132913 56 76 0.0 1.0 0.00 0.00 0.00 50 1013.0
20260508132411 54 76 0.0 0.0 0.00 0.00 0.00 51 1013.1
20260508131907 56 76 0.0 0.0 0.00 0.00 0.00 49 1012.9
20260508131403 53 76 0.0 0.0 0.00 0.00 0.00 52 1013.0
20260508130900 53 76 0.0 0.0 0.00 0.00 0.00 51 1013.0
20260508130356 52 76 0.0 0.0 0.00 0.00 0.00 52 1012.6
20260508125852 52 76 1.0 1.0 0.00 0.00 0.00 51 1012.6
20260508125348 53 71 0.0 0.0 0.00 0.00 0.00 50 1012.6
20260508124846 52 67 1.0 1.0 0.00 0.00 0.00 52 1012.5
20260508124343 53 68 1.0 1.0 0.00 0.00 0.00 51 1012.5
20260508123841 52 68 0.0 1.0 0.00 0.00 0.00 53 1012.7
20260508123334 51 72 1.0 2.0 0.00 0.00 0.00 54 1012.3
20260508122830 51 75 1.0 1.0 0.00 0.00 0.00 56 1012.5
20260508122327 52 76 1.0 1.0 0.00 0.00 0.00 54 1012.2
20260508121824 51 81 0.0 0.0 0.00 0.00 0.00 55 1012.2
20260508121323 52 80 1.0 1.0 0.00 0.00 0.00 54 1012.4
20260508120820 54 81 0.0 1.0 0.00 0.00 0.00 51 1012.2
20260508120318 54 81 1.0 1.0 0.00 0.00 0.00 50 1012.1
20260508115815 53 88 1.0 1.0 0.00 0.00 0.00 52 1012.1
20260508115312 52 92 1.0 1.0 0.00 0.00 0.00 53 1012.1
20260508114809 52 83 1.0 1.0 0.00 0.00 0.00 53 1012.1
20260508114306 53 84 1.0 1.0 0.00 0.00 0.00 53 1011.8
20260508113802 54 87 1.0 1.0 0.00 0.00 0.00 50 1012.0
20260508113301 54 88 0.0 1.0 0.00 0.00 0.00 50 1012.0
20260508112756 54 83 1.0 1.0 0.00 0.00 0.00 50 1012.0
20260508112254 54 87 1.0 1.0 0.00 0.00 0.00 50 1011.8
20260508111749 53 80 0.0 1.0 0.00 0.00 0.00 51 1012.1
20260508111247 54 76 0.0 0.0 0.00 0.00 0.00 50 1012.0
20260508110744 54 75 1.0 1.0 0.00 0.00 0.00 50 1012.0
20260508110241 54 73 1.0 1.0 0.00 0.00 0.00 48 1012.0
20260508105736 54 63 1.0 1.0 0.00 0.00 0.00 48 1011.7
20260508105233 53 56 0.0 0.0 0.00 0.00 0.00 50 1011.8
20260508104730 53 53 0.0 0.0 0.00 0.00 0.00 51 1011.8
20260508104227 54 50 1.0 1.0 0.00 0.00 0.00 49 1012.0
20260508103725 55 49 0.0 1.0 0.00 0.00 0.00 47 1011.8
20260508103221 55 49 1.0 1.0 0.00 0.00 0.00 47 1011.6
20260508102718 54 17 1.0 1.0 0.00 0.00 0.00 48 1011.8
20260508102216 53 352 0.0 0.0 0.00 0.00 0.00 50 1011.5
20260508101713 52 317 0.0 0.0 0.00 0.00 0.00 53 1011.7
20260508101211 53 309 1.0 1.0 0.00 0.00 0.00 52 1011.6
20260508100708 53 309 0.0 0.0 0.00 0.00 0.00 53 1011.7
20260508100206 53 309 0.0 1.0 0.00 0.00 0.00 53 1011.7
20260508095702 52 308 1.0 1.0 0.00 0.00 0.00 54 1011.5
20260508095159 51 322 0.0 0.0 0.00 0.00 0.00 57 1011.6
20260508094656 52 321 1.0 1.0 0.00 0.00 0.00 56 1011.5
20260508094153 52 321 1.0 1.0 0.00 0.00 0.00 55 1011.6
20260508093650 52 278 0.0 0.0 0.00 0.00 0.00 55 1011.7
20260508093148 51 277 0.0 1.0 0.00 0.00 0.00 57 1011.5
20260508092645 52 279 0.0 0.0 0.00 0.00 0.00 56 1011.4
20260508092143 52 279 0.0 0.0 0.00 0.00 0.00 56 1011.8
20260508091640 51 279 0.0 1.0 0.00 0.00 0.00 56 1011.6
20260508091137 51 279 0.0 1.0 0.00 0.00 0.00 57 1011.4
20260508090635 52 279 0.0 0.0 0.00 0.00 0.00 56 1011.4
20260508090132 52 279 0.0 0.0 0.00 0.00 0.00 56 1011.5
20260508085628 52 279 0.0 1.0 0.00 0.00 0.00 56 1011.4
20260508085126 52 279 0.0 1.0 0.00 0.00 0.00 56 1011.4
20260508084622 52 279 1.0 1.0 0.00 0.00 0.00 55 1011.7
20260508084120 53 278 0.0 0.0 0.00 0.00 0.00 55 1011.5
20260508083616 53 281 2.0 2.0 0.00 0.00 0.00 54 1011.6
20260508083114 54 292 2.0 2.0 0.00 0.00 0.00 53 1011.6
20260508082609 55 313 0.0 0.0 0.00 0.00 0.00 50 1011.5
20260508082107 55 313 0.0 0.0 0.00 0.00 0.00 50 1011.5
20260508081604 55 313 0.0 0.0 0.00 0.00 0.00 49 1011.6
20260508081100 56 313 1.0 1.0 0.00 0.00 0.00 48 1011.4
20260508080558 56 313 1.0 1.0 0.00 0.00 0.00 48 1011.5
20260508080055 56 313 1.0 1.0 0.00 0.00 0.00 48 1011.6
20260508075552 56 313 1.0 1.0 0.00 0.00 0.00 49 1011.6
20260508075049 57 313 1.0 1.0 0.00 0.00 0.00 49 1011.7
20260508074547 57 313 1.0 1.0 0.00 0.00 0.00 47 1011.4
20260508074043 57 313 1.0 1.0 0.00 0.00 0.00 47 1011.3
20260508073540 56 299 1.0 1.0 0.00 0.00 0.00 47 1011.4
20260508073038 55 292 1.0 1.0 0.00 0.00 0.00 48 1011.4
20260508072534 55 292 0.0 0.0 0.00 0.00 0.00 50 1011.5
20260508072031 56 292 0.0 0.0 0.00 0.00 0.00 49 1011.5
20260508071529 55 292 0.0 0.0 0.00 0.00 0.00 51 1011.4
20260508071026 55 292 0.0 0.0 0.00 0.00 0.00 51 1011.5
20260508070524 55 292 0.0 0.0 0.00 0.00 0.00 51 1011.4
20260508070022 56 292 0.0 0.0 0.00 0.00 0.00 50 1011.5
20260508065519 56 292 0.0 0.0 0.00 0.00 0.00 51 1011.4
20260508065018 56 292 0.0 0.0 0.00 0.00 0.00 50 1011.4
20260508064515 57 292 0.0 0.0 0.00 0.00 0.00 49 1011.4
20260508064013 57 292 0.0 0.0 0.00 0.00 0.00 47 1011.3
20260508063510 56 288 1.0 1.0 0.00 0.00 0.00 49 1011.3
20260508063007 56 269 0.0 0.0 0.00 0.00 0.00 51 1011.2
20260508062505 56 269 1.0 1.0 0.00 0.00 0.00 50 1011.2
20260508062001 57 269 0.0 1.0 0.00 0.00 0.00 49 1011.2
20260508061500 56 269 0.0 0.0 0.00 0.00 0.00 49 1010.9
20260508060955 56 269 0.0 0.0 0.00 0.00 0.00 50 1011.2
20260508060453 57 269 0.0 0.0 0.00 0.00 0.00 49 1011.2
20260508055949 57 269 0.0 0.0 0.00 0.00 0.00 48 1011.0
20260508055446 57 269 0.0 0.0 0.00 0.00 0.00 48 1011.3
20260508054942 58 269 0.0 0.0 0.00 0.00 0.00 48 1011.2
20260508054439 59 269 1.0 1.0 0.00 0.00 0.00 46 1011.2
20260508053936 59 243 1.0 1.0 0.00 0.00 0.00 45 1010.9
20260508053433 59 231 0.0 1.0 0.00 0.00 0.00 45 1010.9
20260508052931 60 232 0.0 1.0 0.00 0.00 0.00 44 1011.2
20260508052428 61 5 0.0 0.0 0.00 0.00 0.00 41 1011.0
20260508051924 61 5 0.0 1.0 0.00 0.00 0.00 40 1011.0
20260508051420 61 5 0.0 0.0 0.00 0.00 0.00 42 1011.2
20260508050916 61 5 1.0 1.0 0.00 0.00 0.00 40 1011.0
20260508050413 62 5 0.0 0.0 0.00 0.00 0.00 40 1010.8
20260508045909 62 350 1.0 1.0 0.00 0.00 0.00 40 1010.7
20260508045407 62 330 1.0 1.0 0.00 0.00 0.00 42 1010.7
20260508044905 62 325 1.0 1.0 0.00 0.00 0.00 41 1010.9
20260508044402 62 308 1.0 1.0 0.00 0.00 0.00 42 1010.6
20260508043857 62 308 0.0 1.0 0.00 0.00 0.00 40 1010.9
20260508043354 63 308 1.0 1.0 0.00 0.00 0.00 40 1010.8
20260508042851 63 308 1.0 1.0 0.00 0.00 0.00 40 1010.8
20260508042349 62 308 0.0 1.0 0.00 0.00 0.00 40 1010.8
20260508041845 62 308 0.0 0.0 0.00 0.00 0.00 40 1010.6
20260508041342 63 308 0.0 1.0 0.00 0.00 0.00 39 1010.8
20260508040838 63 308 1.0 1.0 0.00 0.00 0.00 40 1010.7
20260508040335 63 307 1.0 1.0 0.00 0.00 0.00 40 1010.7
20260508035833 63 304 1.0 1.0 0.00 0.00 0.00 39 1010.7
20260508035330 64 295 1.0 1.0 0.00 0.00 0.00 39 1010.7
20260508034827 64 295 0.0 1.0 0.00 0.00 0.00 37 1010.5
20260508034324 64 295 0.0 0.0 0.00 0.00 0.00 38 1010.6
20260508033821 66 295 0.0 0.0 0.00 0.00 0.00 36 1010.3
20260508033319 66 295 0.0 0.0 0.00 0.00 0.00 34 1010.5
20260508032816 65 295 0.0 0.0 0.00 0.00 0.00 36 1010.5
20260508032314 65 295 0.0 0.0 0.00 0.00 0.00 35 1010.4
20260508031810 65 295 0.0 0.0 0.00 0.00 0.00 35 1010.4
20260508031307 65 295 0.0 0.0 0.00 0.00 0.00 36 1010.3
20260508030803 65 295 0.0 0.0 0.00 0.00 0.00 36 1010.3
20260508030301 66 295 0.0 0.0 0.00 0.00 0.00 34 1010.0
20260508025757 66 295 0.0 0.0 0.00 0.00 0.00 33 1010.3
20260508025254 67 295 0.0 0.0 0.00 0.00 0.00 32 1010.1
20260508024750 67 295 0.0 0.0 0.00 0.00 0.00 33 1010.0
20260508024247 67 295 0.0 0.0 0.00 0.00 0.00 34 1010.3
20260508023744 67 295 0.0 0.0 0.00 0.00 0.00 34 1010.3
20260508023241 68 295 0.0 0.0 0.00 0.00 0.00 33 1009.9
20260508022737 69 295 0.0 0.0 0.00 0.00 0.00 32 1010.0
20260508022234 69 295 0.0 0.0 0.00 0.00 0.00 30 1009.7
20260508021731 70 295 0.0 0.0 0.00 0.00 0.00 29 1009.9
20260508021226 72 295 0.0 0.0 0.00 0.00 0.00 29 1009.9
20260508020723 73 295 0.0 0.0 0.00 0.00 0.00 27 1009.9
20260508020221 73 295 0.0 1.0 0.00 0.00 0.00 27 1009.9
20260508015718 74 295 1.0 2.0 0.00 0.00 0.00 25 1010.0
20260508015215 74 284 1.0 1.0 0.00 0.00 0.00 25 1009.9
20260508014712 74 284 0.0 0.0 0.00 0.00 0.00 25 1009.9
20260508014208 74 289 2.0 2.0 0.00 0.00 0.00 25 1010.0
20260508013704 74 231 1.0 2.0 0.00 0.00 0.00 26 1009.9
20260508013201 75 256 1.0 1.0 0.00 0.00 0.00 26 1009.9
20260508012659 76 280 1.0 1.0 0.00 0.00 0.00 24 1009.9
20260508012155 76 277 0.0 1.0 0.00 0.00 0.00 24 1010.0
20260508011654 77 271 2.0 2.0 0.00 0.00 0.00 24 1010.0
20260508011150 75 267 0.0 0.0 0.00 0.00 0.00 25 1009.9
20260508010647 74 263 1.0 2.0 0.00 0.00 0.00 26 1009.9
20260508010145 75 293 3.0 3.0 0.00 0.00 0.00 25 1010.0
20260508005642 75 262 1.0 2.0 0.00 0.00 0.00 25 1010.4
20260508005139 75 287 4.0 5.0 0.00 0.00 0.00 25 1010.3
20260508004634 75 274 2.0 2.0 0.00 0.00 0.00 25 1010.0
20260508004131 76 210 4.0 5.0 0.00 0.00 0.00 24 1010.0
20260508003627 75 305 4.0 5.0 0.00 0.00 0.00 24 1010.1
20260508003125 76 292 1.0 1.0 0.00 0.00 0.00 25 1009.9
20260508002621 76 238 2.0 2.0 0.00 0.00 0.00 24 1009.8
20260508002119 76 232 2.0 2.0 0.00 0.00 0.00 25 1010.1
20260508001614 77 170 0.0 1.0 0.00 0.00 0.00 25 1010.0
20260508001110 75 216 1.0 2.0 0.00 0.00 0.00 25 1010.3
20260508000606 75 238 2.0 2.0 0.00 0.00 0.00 27 1010.3
20260508000104 75 159 2.0 3.0 0.00 0.00 0.00 24 1010.3
20260507235600 74 234 3.0 3.0 0.00 0.00 0.00 25 1010.6
20260507235058 74 166 1.0 1.0 0.00 0.00 0.00 26 1010.5
20260507234554 74 36 0.0 1.0 0.00 0.00 0.00 26 1010.5
20260507234051 74 132 4.0 5.0 0.00 0.00 0.00 26 1010.5
20260507233547 75 125 3.0 3.0 0.00 0.00 0.00 24 1010.5
20260507233047 76 215 1.0 1.0 0.00 0.00 0.00 26 1010.5
20260507232542 74 243 1.0 1.0 0.00 0.00 0.00 25 1010.7
20260507232040 75 198 1.0 2.0 0.00 0.00 0.00 25 1010.7
20260507231536 76 217 4.0 6.0 0.00 0.00 0.00 25 1010.8
20260507231034 74 236 1.0 1.0 0.00 0.00 0.00 26 1010.5
20260507230530 75 293 2.0 2.0 0.00 0.00 0.00 25 1011.0
20260507230027 74 271 2.0 3.0 0.00 0.00 0.00 25 1010.8
20260507225521 75 310 1.0 2.0 0.00 0.00 0.00 25 1011.0